[[{"header":{"parameterUnit":"m.s-1","parameterCategory":1,"la1":30.2991,"la2":30.254,"lo1":-89.0895,"lo2":-89.0444,"dy":0.0017,"dx":0.0017,"nx":28,"ny":28,"refTime":"2025-06-21T21:00:00:Z","depth":0,"parameterNumber":2,"parameterNumberName":"U-component_of_WINDS"},"data":[0,0,0,0,0,0,0,0,0,0,0,0,0,0,0,0,0,0,0,0,0,0,0,0,0,0,0,0,0,0,0,0,0,0,0,0,0,0,0,0,0,0,0,0,0,0,0,0,0,0,0,0,0,0,0,0,0,0,-2.4874,-2.4876,0,-2.4994,-2.4995,-2.4997,-2.4987,-2.4985,-2.4983,-2.4982,-2.5105,-2.511,-2.5115,0,0,0,0,0,0,0,0,0,0,0,0,0,-2.4638,-2.4643,-2.4874,-2.4876,-2.4877,-2.4994,-2.4996,-2.4997,-2.4987,-2.4985,-2.4983,-2.4981,-2.5103,-2.5109,-2.5115,0,0,0,0,0,0,0,0,0,0,0,0,0,-2.4748,-2.4644,-2.4874,-2.4886,-2.4889,-2.4994,-2.4996,-2.4998,-2.4988,-2.4985,-2.4982,-2.498,-2.5101,-2.5109,-2.5116,-2.5216,0,0,-2.5139,-2.5142,0,0,0,0,0,0,0,0,-2.4741,-2.4756,-2.4883,-2.4886,-2.4888,-2.4973,-2.4957,-2.5071,-2.4988,-2.495,-2.4982,-2.4978,-2.5063,-2.5074,-2.5102,-2.5222,-2.5228,-2.5139,-2.5144,-2.5147,-2.5149,0,0,0,0,0,0,0,-2.4734,-2.4751,-2.4922,-2.4885,-2.4888,-2.4886,-2.4899,-2.4979,-2.5021,-2.4953,-2.4953,-2.4967,-2.5064,-2.5095,-2.5105,-2.5229,-2.5139,-2.5146,-2.515,-2.5153,-2.5438,-2.5441,0,0,0,0,0,0,-2.4723,-2.4745,-2.4918,-2.4925,-2.4807,-2.4893,-2.4907,-2.4948,-2.502,-2.5028,-2.4969,-2.4966,-2.5084,-2.5096,-2.5109,-2.5231,-2.5147,-2.5154,-2.5158,-2.5435,-2.5439,-2.5442,0,0,0,0,0,0,-2.4718,-2.4739,-2.4913,-2.4835,-2.4857,-2.49,-2.4947,-2.4952,-2.4983,-2.5032,-2.5039,-2.4993,-2.5082,-2.5099,-2.519,-2.5235,-2.5157,-2.5164,-2.5431,-2.5436,-2.544,-2.5476,0,0,0,0,0,0,-2.4711,-2.4737,-2.4775,-2.4836,-2.4861,-2.4991,-2.4949,-2.4957,-2.4996,-2.4993,-2.5056,-2.5064,-2.5081,-2.5179,-2.5197,-2.5244,-2.517,-2.5427,-2.5434,-2.5439,-2.5471,-2.5481,-2.549,0,0,0,0,0,-2.4703,-2.4781,-2.4777,-2.4798,-2.491,-2.4994,-2.5008,-2.5027,-2.4999,-2.5038,-2.507,-2.5062,-2.5228,-2.5188,-2.5209,-2.5259,-2.5425,-2.5432,-2.5439,-2.5466,-2.5479,-2.549,0,0,0,0,0,0,-2.4724,-2.4789,-2.4786,-2.4885,-2.4934,-2.4992,-2.5042,-2.5039,-2.5097,-2.5092,-2.5112,-2.5127,-2.5218,-2.5248,-2.5203,-2.536,-2.5323,-2.5334,-2.5337,-2.5349,-2.5359,-2.5349,-2.5176,0,0,0,0,0,-2.4741,-2.4803,-2.4856,-2.4939,-2.4964,-2.4999,-2.5036,-2.5046,-2.5097,-2.5118,-2.5156,-2.5207,-2.527,-2.5312,-2.5373,-2.5476,-2.5489,-2.552,-2.553,-2.5537,-2.5547,-2.5603,-2.5617,-2.5465,-2.5465,-2.5465,0,0,-2.4775,-2.4818,-2.4856,-2.4944,-2.4983,-2.5048,-2.5016,-2.5086,-2.5134,-2.5129,-2.5217,-2.5247,-2.5305,-2.5402,-2.5447,-2.5429,-2.5592,-2.5546,-2.5552,-2.5557,-2.5612,-2.5626,-2.5639,-2.547,-2.5469,-2.5468,0,0,-2.487,-2.4909,-2.4982,-2.5022,-2.5081,-2.5104,-2.5122,-2.518,-2.52,-2.5289,-2.5286,-2.5344,-2.5453,-2.5495,-2.553,-2.5642,-2.5636,-2.5661,-2.5711,-2.5765,-2.5777,-2.5788,-2.5827,-2.5841,-2.567,-2.5671,-2.5671,0,-2.4904,-2.5001,-2.5019,-2.509,-2.5129,-2.5127,-2.5201,-2.5239,-2.5316,-2.5343,-2.5323,-2.546,-2.5499,-2.5605,-2.5633,-2.5662,-2.5682,-2.5653,-2.5774,-2.5785,-2.5795,-2.5833,-2.5848,-2.5673,-2.5673,-2.5673,-2.5672,0,-2.5041,-2.5108,-2.516,-2.5234,-2.5279,-2.5351,-2.538,-2.5424,-2.543,-2.5455,-2.5546,-2.5593,-2.5663,-2.569,-2.5697,-2.5798,-2.5785,-2.5769,-2.5732,-2.5812,-2.5848,-2.5862,-2.5677,-2.5676,-2.5675,-2.5674,0,0,-2.5151,-2.5234,-2.5253,-2.5286,-2.5353,-2.5405,-2.5477,-2.5546,-2.5583,-2.5636,-2.5697,-2.579,-2.5776,-2.5816,-2.5828,-2.5876,-2.5961,-2.5855,-2.5856,-2.5872,-2.6075,-2.6085,-2.6101,-2.5958,-2.5961,-2.5964,-2.6069,0,-2.5252,-2.5379,-2.5398,-2.551,-2.5572,-2.5572,-2.5635,-2.5683,-2.5709,-2.5765,-2.5794,-2.5859,-2.5836,-2.586,-2.5908,-2.594,-2.6002,-2.5933,-2.6015,-2.6017,-2.5999,-2.612,-2.6131,-2.6229,-2.6084,-2.6086,-2.6088,0,-2.5386,-2.5442,-2.556,-2.5618,-2.5645,-2.5701,-2.5766,-2.582,-2.5875,-2.589,-2.5935,-2.5942,-2.6017,-2.5977,-2.6081,-2.6034,-2.6069,-2.609,-2.6094,-2.6102,-2.6056,-2.613,-2.6261,-2.6275,-2.611,-2.6108,-2.6107,0,-2.5453,-2.5559,-2.5643,-2.5672,-2.5742,-2.5781,-2.5812,-2.5864,-2.5904,-2.5961,-2.5987,-2.6053,-2.6088,-2.6139,-2.6163,-2.6132,-2.6265,-2.6228,-2.6279,-2.6279,-2.6306,-2.6304,-2.6443,-2.6331,-2.6331,-2.633,-2.633,0,-2.5563,-2.5635,-2.5674,-2.5726,-2.5807,-2.5829,-2.5908,-2.5938,-2.5984,-2.6042,-2.6047,-2.6101,-2.613,-2.6189,-2.6208,-2.6291,-2.6307,-2.6322,-2.6326,-2.6321,-2.6319,-2.6343,-2.6336,-2.6334,-2.6333,-2.6333,-2.6332,0,-2.5651,-2.5681,-2.5772,-2.5831,-2.5847,-2.5904,-2.5955,-2.6005,-2.6031,-2.6104,-2.6123,-2.6163,-2.6233,-2.6262,-2.6347,-2.636,-2.6455,-2.6455,-2.6436,-2.6437,-2.6487,-2.6482,-2.6646,-2.6669,-2.6542,-2.6543,-2.6544,0,-2.5719,-2.5774,-2.5838,-2.5877,-2.5909,-2.5972,-2.6013,-2.6037,-2.608,-2.6146,-2.6189,-2.6258,-2.6314,-2.6426,-2.6463,-2.6528,-2.6529,-2.6582,-2.6539,-2.6532,-2.6529,-2.6525,-2.653,-2.659,-2.6591,-2.6592,-2.6593,0,-2.5835,-2.5847,-2.5905,-2.597,-2.6019,-2.607,-2.6121,-2.6153,-2.6185,-2.6233,-2.6303,-2.6347,-2.6434,-2.6503,-2.6571,-2.6603,-2.6604,-2.6606,-2.6622,-2.6616,-2.6603,-2.661,-2.6457,-2.6602,-2.6601,-2.66,-2.66,-2.66,-2.5914,-2.5963,-2.6016,-2.6082,-2.6122,-2.617,-2.622,-2.6252,-2.6311,-2.6383,-2.6395,-2.647,-2.6524,-2.6615,-2.665,-2.671,-2.6696,-2.6719,-2.6724,-2.6729,-2.6732,-2.6595,-2.6722,-2.6722,-2.6722,-2.6722,-2.6722,0,-2.603,-2.6064,-2.6124,-2.6194,-2.6246,-2.6242,-2.6298,-2.6341,-2.6408,-2.6457,-2.6513,-2.6595,-2.6662,-2.6705,-2.6772,-2.6812,-2.6814,-2.6829,-2.6825,-2.6833,-2.674,-2.672,-2.6826,-2.6826,-2.6826,-2.6826,-2.6826,-2.6826,-2.6096,-2.6179,-2.6197,-2.63,-2.6334,-2.6408,-2.644,-2.6484,-2.6523,-2.6614,-2.6669,-2.6697,-2.6744,-2.6816,-2.6877,-2.6888,-2.6912,-2.6928,-2.6938,-2.685,-2.6839,-2.6829,-2.681,-2.6933,-2.6934,-2.7026,-2.7026,-2.7027]},{"header":{"parameterUnit":"m.s-1","parameterCategory":1,"la1":30.2991,"la2":30.254,"lo1":-89.0895,"lo2":-89.0444,"dy":0.0017,"dx":0.0017,"nx":28,"ny":28,"refTime":"2025-06-21T21:00:00:Z","depth":0,"parameterNumber":3,"parameterNumberName":"V-component_of_WINDS"},"data":[0,0,0,0,0,0,0,0,0,0,0,0,0,0,0,0,0,0,0,0,0,0,0,0,0,0,0,0,0,0,0,0,0,0,0,0,0,0,0,0,0,0,0,0,0,0,0,0,0,0,0,0,0,0,0,0,0,0,3.1391,3.1391,0,3.1417,3.1417,3.1418,3.137,3.1369,3.1367,3.1365,3.139,3.1392,3.1394,0,0,0,0,0,0,0,0,0,0,0,0,0,3.1295,3.1297,3.139,3.1391,3.1391,3.1417,3.1417,3.1418,3.137,3.1368,3.1367,3.1365,3.1389,3.1392,3.1394,0,0,0,0,0,0,0,0,0,0,0,0,0,3.1331,3.1298,3.139,3.1371,3.1369,3.1417,3.1417,3.1418,3.1371,3.1368,3.1366,3.1364,3.1389,3.1392,3.1395,3.1462,0,0,3.1405,3.1406,0,0,0,0,0,0,0,0,3.1329,3.1334,3.1373,3.1372,3.1371,3.1388,3.1393,3.1433,3.1371,3.137,3.1365,3.1363,3.1391,3.1394,3.1404,3.1463,3.1464,3.1405,3.1407,3.1408,3.1409,0,0,0,0,0,0,0,3.1327,3.1333,3.1401,3.1374,3.1372,3.1359,3.1362,3.14,3.1394,3.137,3.1367,3.1371,3.139,3.1401,3.1404,3.1465,3.1405,3.1408,3.141,3.1411,3.1579,3.1581,0,0,0,0,0,0,3.1327,3.1331,3.14,3.1402,3.1344,3.1363,3.1366,3.1385,3.1393,3.1392,3.1373,3.1368,3.1397,3.1401,3.1405,3.1483,3.1408,3.1411,3.1413,3.1576,3.1579,3.1582,0,0,0,0,0,0,3.1325,3.1334,3.1399,3.1366,3.1373,3.1367,3.1389,3.1386,3.1398,3.1395,3.1393,3.1386,3.1395,3.14,3.1448,3.1483,3.1413,3.1416,3.1573,3.1577,3.1581,3.1641,0,0,0,0,0,0,3.1323,3.1333,3.136,3.1367,3.1375,3.1443,3.1391,3.1389,3.1404,3.1398,3.1407,3.1406,3.1394,3.1444,3.1451,3.1486,3.1418,3.157,3.1575,3.158,3.1636,3.1646,3.1655,0,0,0,0,0,3.1319,3.1375,3.1361,3.137,3.1408,3.1445,3.145,3.1435,3.1407,3.1432,3.1431,3.1405,3.1479,3.1449,3.1457,3.1494,3.1568,3.1574,3.1579,3.1631,3.1644,3.1655,0,0,0,0,0,0,3.1372,3.1376,3.136,3.142,3.1433,3.1437,3.1469,3.145,3.147,3.1464,3.1445,3.1447,3.1498,3.1501,3.1468,3.1559,3.1518,3.1526,3.1555,3.1567,3.1577,3.1574,3.1421,0,0,0,0,0,3.139,3.1421,3.1423,3.1475,3.1482,3.1475,3.149,3.1478,3.149,3.1495,3.1497,3.1508,3.1533,3.1551,3.1574,3.1636,3.1636,3.1665,3.1675,3.1683,3.169,3.1721,3.1734,3.1601,3.1601,3.1601,0,0,3.1429,3.1435,3.1455,3.1486,3.1494,3.1525,3.1479,3.1515,3.1537,3.15,3.1545,3.1547,3.1558,3.1613,3.1637,3.1617,3.1727,3.1691,3.1697,3.1699,3.1728,3.1741,3.1752,3.1605,3.1604,3.1604,0,0,3.1514,3.1523,3.1567,3.1576,3.159,3.1584,3.1595,3.1602,3.1602,3.1647,3.1619,3.1645,3.169,3.1699,3.1709,3.1798,3.1775,3.1806,3.1857,3.1888,3.1898,3.1908,3.1938,3.1949,3.1813,3.1813,3.1813,0,3.156,3.1607,3.1592,3.1629,3.1642,3.1611,3.1655,3.1664,3.1684,3.1694,3.1671,3.1726,3.1731,3.1787,3.1809,3.1819,3.1829,3.1805,3.1898,3.1907,3.1916,3.1944,3.1956,3.1817,3.1816,3.1816,3.1816,0,3.1662,3.1694,3.1728,3.1749,3.1766,3.1807,3.1796,3.1816,3.1802,3.1799,3.1844,3.185,3.1874,3.1886,3.1873,3.194,3.1927,3.1902,3.186,3.1932,3.1958,3.1969,3.1822,3.1821,3.182,3.1819,0,0,3.178,3.1792,3.1805,3.1813,3.1825,3.185,3.1888,3.1912,3.1928,3.1943,3.1973,3.2012,3.1988,3.2,3.1988,3.2015,3.2083,3.1986,3.1986,3.2003,3.2155,3.2173,3.2186,3.2069,3.2071,3.2072,3.2154,0,3.1864,3.1931,3.1918,3.1983,3.2012,3.1982,3.2015,3.2026,3.2024,3.2047,3.2044,3.2071,3.2039,3.2046,3.2072,3.207,3.2113,3.2064,3.2095,3.2097,3.2092,3.22,3.2219,3.2296,3.2164,3.2166,3.2167,0,3.1971,3.199,3.2058,3.2065,3.2076,3.2106,3.2126,3.215,3.216,3.2157,3.217,3.2152,3.2189,3.2148,3.2198,3.2164,3.2176,3.2177,3.218,3.2181,3.2135,3.2203,3.232,3.2331,3.2184,3.2182,3.2181,0,3.2049,3.2092,3.2137,3.2146,3.2155,3.2177,3.2181,3.219,3.2205,3.2222,3.2231,3.2252,3.2263,3.228,3.2268,3.224,3.2319,3.2277,3.2315,3.2316,3.2332,3.2331,3.2452,3.2343,3.2343,3.2342,3.2342,0,3.2144,3.2186,3.2173,3.22,3.2246,3.2231,3.2276,3.2277,3.2285,3.2312,3.2288,3.2313,3.2296,3.232,3.2311,3.2352,3.2358,3.2355,3.2352,3.2357,3.2357,3.2363,3.2357,3.2345,3.2345,3.2344,3.2344,0,3.2238,3.2231,3.2279,3.2284,3.2286,3.2319,3.2323,3.2348,3.2344,3.2378,3.2385,3.2379,3.2405,3.2395,3.2424,3.2417,3.247,3.246,3.2466,3.2463,3.2501,3.2497,3.2629,3.2645,3.2527,3.2529,3.253,0,3.2298,3.233,3.2338,3.2355,3.2361,3.2388,3.2403,3.2389,3.2405,3.2419,3.2442,3.2467,3.2486,3.2529,3.2527,3.2548,3.2538,3.2583,3.2541,3.2544,3.2537,3.2534,3.2537,3.259,3.2592,3.2593,3.2594,0,3.2405,3.24,3.2422,3.2444,3.2462,3.2478,3.2492,3.2507,3.2493,3.2513,3.254,3.2554,3.2583,3.2607,3.2626,3.263,3.2609,3.2607,3.2617,3.2621,3.2623,3.2621,3.2488,3.2604,3.2603,3.2602,3.2602,3.2601,3.2483,3.2509,3.2519,3.2544,3.2554,3.2567,3.2591,3.259,3.2612,3.2635,3.2625,3.2656,3.2665,3.2688,3.2695,3.2718,3.27,3.2715,3.2718,3.2721,3.2726,3.262,3.2721,3.2721,3.2721,3.2721,3.272,0,3.2587,3.2592,3.2616,3.2636,3.2656,3.2636,3.265,3.2667,3.2695,3.2706,3.2725,3.2755,3.2778,3.2778,3.2799,3.2818,3.2809,3.2823,3.2821,3.2822,3.2741,3.273,3.283,3.283,3.283,3.283,3.283,3.283,3.2643,3.2686,3.2682,3.2729,3.2733,3.2764,3.2773,3.2785,3.2793,3.2828,3.2848,3.2847,3.2853,3.2874,3.2894,3.2893,3.2901,3.292,3.2915,3.2839,3.2828,3.2817,3.2807,3.2922,3.2922,3.2994,3.2994,3.2995]}]]